Meteo pe oră la Dziegielow

Astăzi, 3 Martie, Miercuri

Timp Temperatura Precipitaţii Vânt Presiune Umiditate
00:00 +5°C° 0 mm 1 m/s 744 mmHg 73%
01:00 +5°C° 0 mm 1 m/s 744 mmHg 72%
02:00 +5°C° 0 mm 1 m/s 744 mmHg 71%
03:00 +5°C° 0 mm 1 m/s 743 mmHg 71%
04:00 +4°C° 0 mm 1 m/s 743 mmHg 70%
05:00 +4°C° 0 mm 1 m/s 743 mmHg 69%
06:00 +4°C° 0 mm 1 m/s 743 mmHg 69%
07:00 +4°C° 0 mm 1 m/s 743 mmHg 68%
08:00 +7°C° 0 mm 1 m/s 743 mmHg 63%
09:00 +9°C° 0 mm 1 m/s 743 mmHg 57%
10:00 +11°C° 0 mm 1 m/s 742 mmHg 52%
11:00 +12°C° 0 mm 1 m/s 742 mmHg 49%
12:00 +13°C° 0 mm 2 m/s 742 mmHg 45%
13:00 +14°C° 0 mm 2 m/s 741 mmHg 42%
14:00 +14°C° 0 mm 2 m/s 741 mmHg 46%
15:00 +13°C° 0 mm 2 m/s 740 mmHg 50%
16:00 +13°C° 0 mm 2 m/s 739 mmHg 53%
17:00 +10°C° 0 mm 3 m/s 739 mmHg 59%
18:00 +8°C° 0 mm 3 m/s 739 mmHg 64%
19:00 +7°C° 0 mm 3 m/s 739 mmHg 70%
20:00 +5°C° 0 mm 3 m/s 738 mmHg 72%
21:00 +5°C° 0 mm 3 m/s 738 mmHg 74%
22:00 +4°C° 0 mm 3 m/s 738 mmHg 76%
23:00 +4°C° 0 mm 3 m/s 737 mmHg 78%

Mâine, 4 Martie, Joi

Timp Temperatura Precipitaţii Vânt Presiune Umiditate
00:00 +3°C° 0 mm 3 m/s 737 mmHg 80%
01:00 +3°C° 0 mm 3 m/s 737 mmHg 81%
02:00 +3°C° 0 mm 3 m/s 736 mmHg 82%
03:00 +3°C° 0 mm 3 m/s 736 mmHg 82%
04:00 +3°C° 0 mm 3 m/s 735 mmHg 83%
05:00 +3°C° 0 mm 3 m/s 735 mmHg 82%
06:00 +3°C° 0 mm 3 m/s 734 mmHg 82%
07:00 +3°C° 0 mm 3 m/s 734 mmHg 82%
08:00 +5°C° 0 mm 3 m/s 734 mmHg 76%
09:00 +7°C° 0 mm 3 m/s 734 mmHg 70%
10:00 +9°C° 0 mm 3 m/s 733 mmHg 64%
11:00 +10°C° 0 mm 4 m/s 733 mmHg 63%
12:00 +11°C° 0 mm 4 m/s 733 mmHg 62%
13:00 +11°C° 0 mm 4 m/s 732 mmHg 60%
14:00 +11°C° 0 mm 4 m/s 732 mmHg 63%
15:00 +10°C° 0 mm 4 m/s 731 mmHg 66%
16:00 +10°C° 0 mm 3 m/s 730 mmHg 68%
17:00 +9°C° 0 mm 3 m/s 730 mmHg 73%
18:00 +8°C° 0 mm 2 m/s 730 mmHg 77%
19:00 +7°C° 0 mm 2 m/s 730 mmHg 81%
20:00 +7°C° 0.2 mm 2 m/s 730 mmHg 83%
21:00 +7°C° 0.2 mm 2 m/s 730 mmHg 85%
22:00 +8°C° 0.2 mm 1 m/s 729 mmHg 88%
23:00 +6°C° 1.5 mm 2 m/s 729 mmHg 90%

Poimâine, 5 Martie, Vineri

Timp Temperatura Precipitaţii Vânt Presiune Umiditate
00:00 +6°C° 1.5 mm 2 m/s 729 mmHg 92%
01:00 +4°C° 1.5 mm 3 m/s 729 mmHg 95%
02:00 +3°C° 1.2 mm 3 m/s 729 mmHg 95%
03:00 +3°C° 1.2 mm 2 m/s 729 mmHg 96%
04:00 +1°C° 1.2 mm 2 m/s 729 mmHg 97%
05:00 +1°C° 0.6 mm 2 m/s 730 mmHg 96%
06:00 +1°C° 0.6 mm 2 m/s 730 mmHg 96%
07:00 +1°C° 0.6 mm 2 m/s 731 mmHg 96%
08:00 +1°C° 0.3 mm 2 m/s 731 mmHg 92%
09:00 0°C° 0.3 mm 3 m/s 732 mmHg 89%
10:00 0°C° 0.3 mm 3 m/s 732 mmHg 85%
11:00 0°C° 0.1 mm 3 m/s 733 mmHg 80%
12:00 +1°C° 0.1 mm 3 m/s 733 mmHg 76%
13:00 0°C° 0.1 mm 4 m/s 734 mmHg 71%
14:00 0°C° 0 mm 4 m/s 734 mmHg 66%
15:00 0°C° 0 mm 4 m/s 734 mmHg 62%
16:00 0°C° 0 mm 4 m/s 735 mmHg 58%
17:00 0°C° 0 mm 3 m/s 735 mmHg 62%
18:00 -1°C° 0 mm 3 m/s 736 mmHg 66%
19:00 -2°C° 0 mm 2 m/s 737 mmHg 70%
20:00 -2°C° 0 mm 2 m/s 737 mmHg 71%
21:00 -2°C° 0 mm 2 m/s 738 mmHg 71%
22:00 0°C° 0 mm 1 m/s 738 mmHg 72%
23:00 -1°C° 0 mm 1 m/s 738 mmHg 73%

6 Martie, Sâmbătă

Timp Temperatura Precipitaţii Vânt Presiune Umiditate
00:00 -1°C° 0 mm 1 m/s 739 mmHg 74%
01:00 -1°C° 0 mm 1 m/s 739 mmHg 75%
02:00 -3°C° 0 mm 2 m/s 739 mmHg 77%
03:00 -3°C° 0 mm 2 m/s 740 mmHg 79%
04:00 -3°C° 0 mm 2 m/s 740 mmHg 80%
05:00 -3°C° 0.1 mm 2 m/s 740 mmHg 81%
06:00 -3°C° 0.1 mm 2 m/s 741 mmHg 81%
07:00 -4°C° 0.1 mm 2 m/s 741 mmHg 81%
08:00 -3°C° 0.1 mm 2 m/s 742 mmHg 79%
09:00 -2°C° 0.1 mm 2 m/s 742 mmHg 76%
10:00 -2°C° 0.1 mm 2 m/s 743 mmHg 73%
11:00 -1°C° 0.1 mm 2 m/s 743 mmHg 67%
12:00 -1°C° 0.1 mm 2 m/s 743 mmHg 61%
13:00 +1°C° 0.1 mm 2 m/s 743 mmHg 55%
14:00 +1°C° 0 mm 2 m/s 743 mmHg 54%
15:00 +1°C° 0 mm 2 m/s 742 mmHg 53%
16:00 +1°C° 0 mm 2 m/s 742 mmHg 52%
17:00 +1°C° 0 mm 1 m/s 742 mmHg 56%
18:00 0°C° 0 mm 1 m/s 742 mmHg 60%
19:00 -2°C° 0 mm 0 m/s 743 mmHg 64%
20:00 -1°C° 0 mm 1 m/s 743 mmHg 64%
21:00 -1°C° 0 mm 1 m/s 743 mmHg 65%
22:00 -1°C° 0 mm 1 m/s 743 mmHg 66%
23:00 -1°C° 0 mm 1 m/s 742 mmHg 66%

7 Martie, Duminică

Timp Temperatura Precipitaţii Vânt Presiune Umiditate
00:00 -3°C° 0 mm 2 m/s 742 mmHg 66%
01:00 -4°C° 0 mm 2 m/s 742 mmHg 66%
02:00 -4°C° 0 mm 2 m/s 741 mmHg 66%
03:00 -4°C° 0 mm 2 m/s 741 mmHg 65%
04:00 -4°C° 0 mm 2 m/s 740 mmHg 65%
05:00 -4°C° 0 mm 2 m/s 740 mmHg 65%
06:00 -4°C° 0 mm 2 m/s 740 mmHg 64%
07:00 -5°C° 0 mm 3 m/s 740 mmHg 64%
08:00 -2°C° 0 mm 3 m/s 740 mmHg 57%
09:00 -1°C° 0 mm 3 m/s 739 mmHg 51%
10:00 0°C° 0 mm 4 m/s 739 mmHg 45%
11:00 0°C° 0 mm 4 m/s 739 mmHg 44%
12:00 +1°C° 0 mm 4 m/s 738 mmHg 42%
13:00 +3°C° 0 mm 4 m/s 738 mmHg 41%
14:00 +3°C° 0 mm 4 m/s 737 mmHg 43%
15:00 +3°C° 0 mm 4 m/s 736 mmHg 44%
16:00 +3°C° 0 mm 4 m/s 735 mmHg 46%
17:00 +1°C° 0 mm 3 m/s 735 mmHg 51%
18:00 0°C° 0 mm 3 m/s 735 mmHg 56%
19:00 -1°C° 0 mm 2 m/s 735 mmHg 61%
20:00 -2°C° 0 mm 2 m/s 735 mmHg 62%
21:00 -2°C° 0 mm 2 m/s 735 mmHg 63%
22:00 -2°C° 0 mm 2 m/s 735 mmHg 64%
23:00 -2°C° 0 mm 2 m/s 734 mmHg 65%

8 Martie, Luni

Timp Temperatura Precipitaţii Vânt Presiune Umiditate
00:00 -2°C° 0 mm 2 m/s 734 mmHg 65%
01:00 -2°C° 0 mm 2 m/s 734 mmHg 66%
02:00 -3°C° 0 mm 2 m/s 733 mmHg 66%
03:00 -3°C° 0 mm 2 m/s 733 mmHg 67%
04:00 -3°C° 0 mm 2 m/s 733 mmHg 68%
05:00 -3°C° 0 mm 2 m/s 733 mmHg 67%
06:00 -3°C° 0 mm 2 m/s 733 mmHg 67%
07:00 0°C° 0 mm 1 m/s 732 mmHg 66%
08:00 -1°C° 0 mm 2 m/s 733 mmHg 61%
09:00 +1°C° 0 mm 2 m/s 733 mmHg 56%
10:00 +2°C° 0 mm 2 m/s 733 mmHg 52%
11:00 +3°C° 0 mm 2 m/s 733 mmHg 53%
12:00 +3°C° 0 mm 2 m/s 733 mmHg 54%
13:00 +3°C° 0 mm 2 m/s 733 mmHg 55%
14:00 +3°C° 0 mm 2 m/s 732 mmHg 59%
15:00 +3°C° 0 mm 2 m/s 732 mmHg 63%
16:00 +2°C° 0 mm 2 m/s 732 mmHg 67%
17:00 +1°C° 0 mm 2 m/s 733 mmHg 74%
18:00 +2°C° 0 mm 1 m/s 733 mmHg 80%
19:00 +1°C° 0 mm 1 m/s 733 mmHg 87%
20:00 +1°C° 0.1 mm 1 m/s 734 mmHg 88%
21:00 -2°C° 0.1 mm 2 m/s 734 mmHg 89%
22:00 -2°C° 0.1 mm 3 m/s 735 mmHg 89%
23:00 -2°C° 0 mm 2 m/s 735 mmHg 88%
Arată mai mult

Formular de consimțământ

Meteoprog și furnizorii noștri de servicii pot stoca și accesa date personale, precum cookies, identificatori de dispozitiv sau alte tehnologii similare pe dispozitivul dumneavoastră și procesa astfel de date pentru a personaliza conținutul și reclamele, dar și pentru a oferi caracteristici de social media și pentru a analiza traficul.

  • Stocarea și/sau accesarea informațiilor pe dispozitivul dumneavoastră

    Cookies, identificatori de dispozitiv sau alte informații pot fi stocate sau accesate pe dispozitiv în scopurile indicate mai sus.

  • Reclame și conținut personalizat, evaluarea reclamelor și a conținutului, informații despre audiențe și dezvoltarea produselor

    Reclamele și conținutul pot fi personalizate pe baza unui profil. Pot fi adăugate date suplimentare pentru a personaliza mai bine reclamele și conținutul. Performanța reclamelor și conținutului poate fi măsurată. Pot fi obținute informații despre utilizatorii care au văzut reclamele și conținutul. Aceste date pot fi utilizate pentru a dezvolta sau îmbunătăți experiența utilizatorilor, sistemele și software-ul.

Dând clic pe ‘Sunt de acord’, permiteți utilizarea cookie-urilor menționate, a identificatorilor de dispozitiv, balizelor web sau altor tehnologii similare. Setările pot fi modificate din browser-ul dispozitivului dumneavoastră.

În anumite scopuri, interesele legitime pot prima asupra consimțământului. Puteți citi mai multe informații în acest sens în Politica privind Confidențialitatea Datelor și Cookie.